User: anonymous   Login
Location: Brno
(49.2000°N, 16.6330°E)
Time: 09:54:24
(UTC+02:00)
Language:

Cosmos 332 Rocket - Orbit

View from above orbital plane
View from above orbital plane
View from above satellite
View from above satellite

Ground track
Ground track

The orbit data is extracted from the following two-line orbital elements,

1  4370U 70028B   18147.96807590 +.00000181 +00000-0 +43977-4 0  9990
2  4370 074.0375 151.5854 0016121 337.2230 022.8218 14.59932346061817
Epoch (UTC): 27 May 2018 23:14:01
Eccentricity: 0.0016121
inclination: 74.0375°
perigee height: 682 km
apogee height: 705 km
right ascension of ascending node: 151.5854°
argument of perigee: 337.2230°
revolutions per day: 14.59932346
mean anomaly at epoch: 22.8218°
orbit number at epoch: 6181

The dashed part of the orbit path shows where the satellite is in the earth's shadow,  

DLR